Observations for Trim Patrick St
| Time | AQI | Temp °C | Hum % | Pres Pa | CO μg/m³ | H₂S μg/m³ | NO μg/m³ | NO₂ μg/m³ | O₃ μg/m³ | SO₂ μg/m³ | PM1 μg/m³ | PM2.5 μg/m³ | PM10 μg/m³ |
|---|---|---|---|---|---|---|---|---|---|---|---|---|---|
| Wednesday 5 August 2026 | |||||||||||||
| 20:27 | 2 | 17.9 | 56 | 72,289 | 0 | 0 | 2.24 | 3.83 | 57.2 | 0 | 2.86 | 7.53 | 8.28 |
| 20:25 | 2 | 18 | 56 | 72,756 | 0 | 0 | 2.41 | 4.33 | 54.46 | 0 | 2.86 | 7.51 | 8.26 |
| 20:24 | 2 | 18 | 58 | 72,972 | 0 | 0 | 2.58 | 6.57 | 59.37 | 0 | 2.86 | 7.44 | 8.18 |
| 20:23 | 2 | 18 | 57 | 73,163 | 0 | 0 | 2.54 | 5.98 | 56.18 | 0 | 2 | 6.72 | 7.39 |
| 20:22 | 2 | 18 | 58 | 73,418 | 0.01 | 0 | 2.5 | 5.08 | 56.63 | 0 | 2 | 5.94 | 6.53 |
| 20:21 | 2 | 18 | 58 | 73,660 | 0 | 0 | 2.35 | 6.04 | 59.84 | 0 | 2 | 5.91 | 6.5 |
| 20:20 | 2 | 18 | 59 | 73,848 | 0 | 0 | 2.56 | 8.11 | 60.91 | 0 | 2 | 6.61 | 7.27 |
| 20:19 | 2 | 18 | 58 | 74,001 | 0.02 | 0 | 2.24 | 5.35 | 54.2 | 0 | 2 | 6.65 | 7.31 |
| 20:18 | 2 | 18 | 59 | 74,178 | 0.01 | 0.69 | 2.33 | 7.79 | 59.16 | 0.27 | 2 | 6.59 | 7.25 |
| 20:17 | 2 | 17.9 | 59 | 74,300 | 0.01 | 0.9 | 2.31 | 7.94 | 57.29 | 0 | 2.86 | 6.59 | 7.25 |
| 20:16 | 2 | 17.9 | 60 | 74,361 | 0 | 3.23 | 2.56 | 8.76 | 68.82 | 0.55 | 2 | 6.54 | 7.19 |
| 20:15 | 2 | 17.9 | 60 | 74,402 | 0 | 3.89 | 2.33 | 9.69 | 65.61 | 0 | 2 | 6.54 | 7.19 |
| 20:14 | 2 | 17.9 | 60 | 74,410 | 0 | 3.31 | 2.43 | 9.5 | 64.79 | 0.22 | 2.86 | 7.29 | 8.02 |
| 20:13 | 2 | 17.9 | 60 | 74,418 | 0 | 4.2 | 2.42 | 10.13 | 66.78 | 0 | 2.86 | 8.02 | 8.82 |
| 20:12 | 2 | 17.8 | 60 | 74,422 | 0 | 3.84 | 2.38 | 9.12 | 67.37 | 0.23 | 3.71 | 8.04 | 8.84 |
| 20:11 | 2 | 17.8 | 60 | 74,396 | 0 | 4.49 | 2.45 | 8.73 | 67.8 | 0.43 | 2.86 | 7.26 | 7.99 |
| 20:09 | 2 | 17.8 | 60 | 74,292 | 0 | 5.2 | 2.49 | 12.38 | 64.12 | 0 | 2.86 | 6.56 | 7.21 |
| 20:08 | 2 | 17.8 | 59 | 74,214 | 0 | 4.07 | 2.45 | 15.51 | 58.82 | 0.7 | 2 | 6.56 | 7.22 |
| 20:06 | 2 | 17.8 | 59 | 74,076 | 0 | 3.52 | 2.44 | 9.06 | 66.83 | 0.32 | 2.86 | 7.33 | 8.07 |
| 20:03 | 2 | 17.9 | 59 | 73,679 | 0 | 3.81 | 2.37 | 9.4 | 66.68 | 0.16 | 3.71 | 7.34 | 8.08 |